SCP
0 0 0 0 0 0 0 0 0 0 0 0 0 0 0 0 0 0 0 0 0 0 0 0 0 0 0 0 0 0 0 0 1 1 1 1 1 1 1 1 1 1 1
0 0 0 0 0 0 0 0 0 0 0 0 0 0 0 0 0 0 0 0 0 0 0 0 0 0 0 0 0 0 0 0 1 1 1 1 1 1 1 1 1 1 1
1 1 1 1 1 1 1 0 0 0 0 0 0 0 0 0 0 0 0 0 0 0 0 0 0 0 0 0 0 0 0 0 0 1 1 1 1 1 1 1 1 1 1
1 1 1 1 1 1 1 0 0 0 0 0 0 0 0 0 0 0 0 0 0 0 0 0 0 0 0 0 0 0 0 0 0 0 0 0 0 1 1 1 1 1 1
1 2 2 1 1 1 0 0 0 0 0 0 0 0 0 0 0 0 0 0 0 0 0 0 0 0 0 0 0 0 0 0 0 0 0 0 0 0 0 0 0 1 1
1 1 1 1 1 1 0 0 0 0 0 0 0 0 0 0 0 0 0 0 0 0 0 0 0 0 0 0 0 0 0 0 0 0 0 0 0 0 0 0 0 0 0
1 1 1 1 0 0 0 0 0 0 0 0 0 0 0 0 0 0 0 0 0 0 0 0 0 0 0 0 0 0 0 0 0 0 0 0 0 0 0 0 0 0 0
0 0 0 0 0 0 0 0 0 0 0 0 0 0 0 0 0 0 0 0 0 0 0 0 0 0 0 0 0 0 0 0 0 0 0 0 0 0 0 0 0 0 0
0 0 0 0 0 0 0 0 0 0 0 0 0 0 0 0 0 0 0 0 0 0 0 0 0 0 0 0 0 0 0 0 0 0 0 0 0 0 0 0 0 0 0
0 0 0 0 0 0 0 0 0 0 0 0 0 0 0 -0 -0 0 0 0 0 0 0 0 0 0 0 0 0 0 0 0 0 0 0 0 0 0 0 0 0 0 0
0 0 0 0 0 0 0 0 0 0 0 0 0 0 0 0 0 0 0 0 0 0 0 0 0 0 0 0 0 0 0 0 0 0 0 0 0 0 0 0 0 0 0
0 0 0 0 0 0 0 0 0 0 0 0 0 0 0 0 0 0 0 0 0 0 0 0 0 0 0 0 0 0 0 0 0 0 0 0 0 0 0 0 0 0 0
0 0 0 0 0 0 0 0 0 0 0 0 0 0 0 0 0 0 0 0 0 0 0 0 0 0 0 0 0 0 0 0 0 0 0 0 0 0 0 0 0 0 0
0 0 0 0 0 0 0 0 0 0 0 0 0 0 0 0 0 0 0 0 0 0 0 0 0 0 0 0 0 0 0 0 0 0 0 0 0 0 0 0 0 0 0
0 0 0 0 0 0 0 0 0 0 0 0 0 0 0 0 0 0 0 0 0 0 0 0 0 0 0 0 0 0 0 0 0 0 0 0 0 0 0 0 0 0 0
0 0 0 0 0 0 0 0 0 0 0 0 0 0 0 0 0 0 0 0 0 0 0 0 0 0 0 0 0 0 0 0 0 0 0 0 0 0 0 0 0 0 0
0 0 0 0 0 0 0 0 0 0 0 0 0 0 0 0 0 0 0 0 0 0 0 0 0 0 0 0 0 0 0 0 0 0 0 0 0 0 0 0 0 0 0
0 0 0 0 0 0 0 0 0 0 0 0 0 0 0 0 0 0 0 0 0 0 0 0 0 0 0 0 0 0 0 0 0 0 0 0 0 0 0 0 0 0 0
0 0 0 0 0 0 0 0 0 0 0 0 0 0 0 0 0 0 0 0 0 0 0 0 0 0 0 0 0 0 0 0 0 0 0 0 0 0 0 0 0 0 0
0 0 0 0 0 0 0 0 0 0 0 0 0 0 0 0 0 0 0 0 0 0 0 0 0 0 0 0 0 0 0 0 0 0 0 0 0 0 0 0 0 0 0
0 0 0 0 0 0 0 0 0 0 0 0 0 0 0 0 0 0 0 0 0 0 0 0 0 0 0 0 0 0 0 0 0 0 0 0 0 0 0 0 0 0 0
0 0 0 0 0 0 0 0 0 0 0 0 0 0 0 0 0 0 0 0 0 0 0 0 0 0 0 0 0 0 0 0 0 0 0 0 0 0 0 0 0 0 0
0 0 0 0 0 0 0 0 0 0 0 0 0 0 0 0 0 0 0 0 0 0 0 0 0 0 0 0 0 0 0 0 0 0 0 0 0 0 0 0 0 0 0
0 0 0 0 0 0 0 0 0 0 0 0 0 0 0 0 0 0 0 0 0 0 0 0 0 0 0 0 0 0 0 0 0 0 0 0 0 0 0 0 0 0 0
0 0 0 0 0 0 0 0 0 0 0 0 0 0 0 0 0 0 0 0 0 0 0 0 0 0 0 0 0 0 0 0 0 0 0 0 0 0 0 0 0 0 0
0 0 0 0 0 0 0 0 0 0 0 0 0 0 0 0 0 0 0 0 0 0 0 0 0 0 0 0 0 0 0 0 0 0 0 0 0 0 0 0 0 0 0
Wind_Speed
5 5 3 3 3 3 4 4 3 3 3 4 2 2 3 3 3 2 6 11 10 7 5 3 2 2 2 2 3 3 4 5 6 7 7 8 8 8 8 8 8 8 8
4 4 4 3 2 2 1 1 2 3 2 2 3 3 2 3 4 3 3 8 12 11 9 8 6 4 3 3 3 3 4 4 6 6 7 8 8 9 9 9 9 9 10
5 4 3 3 2 2 3 2 3 2 2 3 4 4 4 5 4 4 3 2 5 12 12 11 10 10 8 7 6 5 4 4 4 4 5 6 7 8 9 9 9 10 10
5 4 3 3 4 4 4 4 4 4 4 3 3 4 3 2 3 2 1 1 2 2 9 11 11 11 10 10 9 8 8 7 7 7 6 6 7 7 7 8 9 9 9
4 4 4 4 5 5 4 4 4 3 4 3 2 2 2 2 1 1 1 2 2 1 1 8 8 9 9 9 8 8 8 8 8 8 8 8 8 8 8 8 8 8 9
4 5 5 6 5 5 4 4 5 4 3 2 1 1 1 2 2 1 2 1 1 1 1 2 2 5 5 4 5 6 7 8 8 9 9 9 9 10 10 10 9 9 9
5 5 6 6 5 4 4 4 4 4 3 2 2 2 2 2 2 2 3 2 1 1 2 3 5 5 2 5 3 2 6 8 10 11 11 11 11 11 12 12 12 11 11
5 5 7 6 5 4 4 4 3 2 2 1 2 2 3 5 5 4 3 4 3 4 5 5 5 6 7 7 2 3 7 9 11 13 14 14 14 13 14 14 15 15 14
5 4 5 6 5 4 4 4 4 3 3 2 1 3 4 5 2 6 5 5 5 5 7 6 8 8 9 8 9 8 7 9 13 15 16 16 16 16 16 17 17 18 17
6 5 5 6 5 5 5 5 4 3 3 3 3 0 3 5 5 3 6 7 7 8 9 8 9 9 10 9 8 10 11 11 13 16 17 18 18 19 19 19 19 20 20
7 7 6 6 6 6 6 6 5 3 2 1 2 2 1 2 4 6 7 6 6 7 7 8 8 9 10 10 9 10 5 8 13 16 18 19 20 21 21 22 22 22 22
6 8 8 7 7 7 7 6 5 5 4 3 1 1 2 3 5 6 8 9 9 8 8 7 8 9 8 9 12 7 7 11 15 16 17 18 20 21 22 23 23 23 23
6 7 7 7 7 7 7 6 5 5 4 2 1 2 3 5 5 7 9 10 11 10 10 9 8 7 8 9 9 4 9 14 16 16 16 18 20 21 22 23 23 24 24
8 8 8 7 8 7 6 5 4 3 2 1 2 3 5 5 6 7 8 10 12 12 11 11 8 9 9 9 7 6 13 14 15 16 17 19 21 22 23 23 23 23 23
9 9 9 8 7 6 5 3 3 2 1 2 2 3 5 6 6 7 8 9 11 14 13 11 10 10 9 10 10 13 15 15 17 18 21 22 23 23 23 23 24 24 23
9 9 8 7 6 5 4 2 3 2 1 2 3 5 6 7 7 8 8 8 9 12 14 11 11 11 11 12 14 16 17 19 21 21 22 21 21 22 22 23 23 23 23
9 8 8 7 6 5 4 3 2 1 3 4 5 6 7 8 8 8 9 9 9 10 13 12 11 12 14 15 14 15 15 15 14 16 17 17 18 20 22 23 23 23 22
9 8 7 7 6 5 3 2 2 3 4 5 6 7 8 7 9 10 8 10 10 10 12 15 13 13 15 15 15 15 14 13 13 15 16 19 20 21 22 22 22 21 19
9 8 7 6 5 4 3 2 3 4 5 6 7 8 9 9 10 9 10 10 9 10 10 12 14 12 12 13 14 13 14 12 14 13 15 18 20 21 20 19 19 17 16
8 7 6 4 3 2 2 3 4 5 6 7 8 8 9 9 9 10 9 10 11 11 12 11 12 12 11 13 11 10 11 11 11 13 14 14 14 16 18 19 19 19 17
7 5 4 3 2 2 5 7 6 6 7 8 8 8 8 8 10 9 10 12 12 11 11 11 11 11 11 10 10 9 10 10 11 12 11 10 9 9 10 14 19 21 19
5 4 3 2 2 5 8 8 9 9 8 9 9 8 8 8 7 11 13 14 16 15 14 12 10 11 12 12 10 10 10 10 8 7 9 11 10 10 9 8 8 10 13
4 3 3 3 4 7 5 6 8 11 10 8 8 8 8 8 10 10 12 16 16 16 17 14 13 13 12 11 11 11 11 11 10 10 10 11 10 9 8 6 7 8 10
3 3 3 4 3 6 5 6 11 11 8 8 8 9 9 10 8 11 14 15 15 14 13 12 11 12 12 11 11 11 11 10 10 10 9 8 8 7 7 6 4 7 8
3 3 3 3 3 5 5 5 11 9 6 9 9 8 9 10 8 11 14 14 14 13 12 12 14 15 15 15 12 9 8 7 8 9 7 6 6 7 7 5 2 5 7
2 2 3 3 3 3 4 3 10 8 7 8 8 8 6 6 11 13 13 12 12 13 14 13 10 9 9 8 9 8 6 6 6 5 4 5 6 6 5 4 4 3 4
Wind_Direction
207 198 194 187 206 193 189 199 195 149 168 159 133 102 77 63 42 28 99 75 64 61 55 41 23 351 312 284 267 259 256 257 257 254 250 247 246 244 241 238 235 232 230
203 203 191 184 194 206 204 190 144 160 173 111 98 68 29 59 61 359 65 99 76 65 60 56 49 37 14 336 316 299 287 279 274 267 260 252 248 245 243 241 238 234 230
201 197 188 167 140 112 107 108 105 108 102 99 72 53 44 26 41 26 9 356 104 82 66 62 59 54 47 36 23 8 355 342 326 309 289 274 262 255 250 245 241 238 234
202 187 155 130 117 114 114 106 100 94 78 62 52 31 32 36 33 12 347 6 359 106 89 69 62 57 52 44 39 32 27 19 10 355 333 313 300 289 271 258 251 246 242
184 152 125 117 121 114 109 107 98 97 91 75 66 37 2 349 325 20 24 48 67 343 90 107 88 66 52 40 30 22 14 7 1 355 348 341 340 334 312 286 270 259 252
125 125 121 125 123 115 108 102 106 97 95 88 35 29 325 310 286 265 237 155 164 220 323 347 226 115 93 51 20 3 350 340 334 329 325 324 329 333 328 313 290 271 260
117 131 129 129 126 118 119 131 127 127 125 151 185 209 217 245 261 245 255 257 186 269 281 295 297 315 262 180 185 332 323 317 313 308 305 304 306 310 312 310 302 283 267
125 143 141 138 133 130 139 154 156 156 128 171 252 247 234 208 213 222 229 232 261 265 270 266 291 275 286 290 198 252 279 290 295 294 293 293 293 294 295 295 294 289 277
141 148 147 137 141 149 150 156 156 153 139 134 316 276 276 279 192 188 224 242 250 273 279 283 271 275 275 277 282 260 266 288 288 287 286 287 287 286 285 286 285 283 278
122 121 119 117 117 118 123 128 113 125 147 152 144 342 340 344 302 274 211 222 237 256 271 281 284 282 275 272 274 278 269 272 285 288 288 287 286 285 283 281 280 279 276
99 98 101 106 112 109 104 103 106 111 143 154 152 165 177 218 258 281 293 290 268 260 263 266 276 285 286 281 280 284 317 303 294 291 290 289 288 286 283 280 278 276 275
99 104 111 113 111 109 109 110 113 103 82 78 34 298 282 291 295 300 293 288 289 288 289 287 281 278 284 289 288 321 323 300 292 289 289 289 287 285 282 279 277 274 272
114 118 117 116 112 112 114 116 113 108 119 130 268 301 307 302 306 301 297 298 299 295 289 277 274 283 289 292 295 337 289 283 279 278 281 284 284 283 281 279 276 274 272
118 120 115 113 115 118 117 117 126 132 141 221 295 316 299 297 311 304 304 304 299 296 292 295 306 299 299 299 307 312 288 277 270 271 273 277 279 278 277 275 274 273 272
122 121 119 114 113 113 118 149 118 136 161 282 300 301 306 315 300 304 302 298 299 300 299 307 302 303 303 296 300 294 291 288 285 281 276 273 273 273 273 273 271 270 269
115 118 114 113 114 116 125 141 128 90 11 351 333 329 316 312 317 300 295 294 292 292 295 301 301 302 308 299 293 290 289 289 280 274 272 269 267 268 270 270 269 267 266
115 115 115 114 113 113 112 103 70 48 337 334 323 320 313 314 305 309 301 294 293 296 297 301 304 304 300 293 291 290 290 289 287 280 279 278 272 269 268 268 268 267 265
103 105 107 107 107 105 97 78 41 358 340 331 326 318 312 312 308 297 302 301 302 301 295 298 301 301 297 296 293 291 289 289 291 289 282 278 274 271 268 266 265 263 262
95 93 95 99 101 98 85 48 5 347 335 327 322 317 314 310 304 306 306 300 299 297 296 295 297 298 296 295 297 296 298 297 294 290 279 268 266 263 260 257 255 254 252
93 94 97 101 101 86 52 14 350 339 329 323 318 312 307 307 306 308 302 301 302 303 300 294 293 296 297 301 305 303 300 298 295 295 290 282 271 260 256 252 250 250 246
98 104 106 101 84 68 37 9 341 331 326 318 314 310 306 308 300 299 305 309 308 303 299 295 295 298 299 304 303 300 295 296 291 289 291 291 287 278 271 253 244 245 242
100 98 83 69 53 62 62 22 339 326 317 312 315 314 306 288 297 292 284 292 296 294 295 295 293 292 295 298 297 295 294 294 293 290 293 293 290 283 280 276 270 246 232
101 81 58 50 71 86 52 3 339 312 307 314 314 309 308 317 307 309 312 305 293 282 278 284 286 288 293 296 299 299 297 295 292 293 290 286 286 283 284 279 264 248 237
81 71 54 40 46 87 51 356 326 295 302 311 308 304 305 308 323 334 318 306 302 301 298 293 291 293 293 296 298 296 296 294 292 292 293 288 299 307 304 291 252 247 248
77 65 52 25 17 92 69 351 323 308 312 313 311 310 307 308 349 331 311 304 306 307 301 289 281 280 280 277 276 286 297 303 308 312 326 314 308 305 296 294 259 229 245
66 35 47 18 1 30 92 346 326 312 321 317 315 311 303 332 329 317 311 306 307 315 316 315 309 300 292 285 262 273 301 308 312 305 334 325 308 317 311 310 307 271 234